THY1025 LTFM-LQSA

Flight info

Callsign THY1025
Flight time 1h 17m
Altitude 38000
Route VADEN N618 GOL Y520 LUKOV Q8 DOLAP DCT OBLAK DCT VEBAR
Aircraft A20N/M-SDE2E3FGHIRWXY/LB1

Departure

Time 2026-05-09 08:19
Airport İstanbul Airport (LTFM)

Arrival

Time 2026-05-09 09:37
Airport Sarajevo International Airport (LQSA)
Time Latitude Longitude Altitude Speed Heading
2026-05-09 07:55 41.26475 28.74144 334 ft 0 kts 91°
2026-05-09 08:09 41.26475 28.74122 332 ft 2 kts 91°
2026-05-09 08:09 41.26475 28.74101 329 ft 2 kts 89°
2026-05-09 08:09 41.26475 28.74079 329 ft 2 kts 88°
2026-05-09 08:09 41.26474 28.74057 330 ft 2 kts 89°
2026-05-09 08:10 41.26468 28.74038 330 ft 2 kts 35°
2026-05-09 08:10 41.26454 28.74028 329 ft 2 kts
2026-05-09 08:10 41.26438 28.74029 332 ft 1 kts 352°
2026-05-09 08:10 41.26436 28.74029 331 ft 0 kts 351°
2026-05-09 08:12 41.26642 28.74022 330 ft 37 kts 359°
2026-05-09 08:12 41.26932 28.74016 329 ft 30 kts
2026-05-09 08:12 41.27055 28.73918 331 ft 17 kts 262°
2026-05-09 08:13 41.27049 28.73764 334 ft 18 kts 267°
2026-05-09 08:13 41.27048 28.73595 332 ft 21 kts 268°
2026-05-09 08:13 41.27043 28.73350 334 ft 30 kts 268°
2026-05-09 08:13 41.27063 28.73120 331 ft 15 kts 330°
2026-05-09 08:14 41.27189 28.73099 334 ft 22 kts 359°
2026-05-09 08:14 41.27375 28.73095 332 ft 30 kts
2026-05-09 08:14 41.27566 28.73083 330 ft 17 kts 330°
2026-05-09 08:14 41.27646 28.72977 332 ft 17 kts 352°
2026-05-09 08:15 41.27777 28.72968 332 ft 22 kts 359°
2026-05-09 08:15 41.27960 28.72964 332 ft 29 kts 359°
2026-05-09 08:15 41.28177 28.72960 333 ft 32 kts 359°
2026-05-09 08:15 41.28409 28.72951 333 ft 34 kts 358°
2026-05-09 08:16 41.28653 28.72944 333 ft 36 kts
2026-05-09 08:16 41.28904 28.72937 333 ft 37 kts 360°
2026-05-09 08:16 41.29167 28.72936 329 ft 38 kts 359°
2026-05-09 08:16 41.29410 28.72929 334 ft 22 kts 359°
2026-05-09 08:17 41.29489 28.72873 331 ft 8 kts 279°
2026-05-09 08:17 41.29491 28.72784 330 ft 12 kts 270°
2026-05-09 08:17 41.29488 28.72652 334 ft 17 kts 269°
2026-05-09 08:17 41.29485 28.72483 334 ft 14 kts 266°
2026-05-09 08:18 41.29430 28.72450 334 ft 10 kts 177°
2026-05-09 08:18 41.29409 28.72450 330 ft 17 kts 179°
2026-05-09 08:18 41.29049 28.72459 333 ft 84 kts 179°
2026-05-09 08:18 41.28279 28.72475 338 ft 134 kts 178°
2026-05-09 08:19 41.27307 28.72501 722 ft 142 kts 180°
2026-05-09 08:19 41.26300 28.72542 1292 ft 146 kts 180°
2026-05-09 08:19 41.25301 28.72631 2065 ft 144 kts 182°
2026-05-09 08:19 41.24252 28.72642 2716 ft 159 kts 183°
2026-05-09 08:20 41.23074 28.72706 3209 ft 179 kts 182°
2026-05-09 08:20 41.21757 28.72755 3735 ft 199 kts 183°
2026-05-09 08:20 41.20320 28.72512 4260 ft 220 kts 202°
2026-05-09 08:20 41.18991 28.71347 4926 ft 242 kts 229°
2026-05-09 08:21 41.18200 28.69329 5925 ft 253 kts 256°
2026-05-09 08:21 41.18086 28.66972 7028 ft 259 kts 267°
2026-05-09 08:21 41.18075 28.64578 8263 ft 260 kts 267°
2026-05-09 08:21 41.18080 28.62130 9311 ft 269 kts 271°
2026-05-09 08:22 41.18486 28.59691 10388 ft 275 kts 289°
2026-05-09 08:22 41.19532 28.57439 10894 ft 303 kts 310°
2026-05-09 08:22 41.21308 28.55766 11245 ft 334 kts 333°
2026-05-09 08:22 41.23638 28.55082 11909 ft 351 kts 353°
2026-05-09 08:23 41.26110 28.55021 12827 ft 356 kts 357°
2026-05-09 08:23 41.28598 28.55073 13752 ft 359 kts 357°
2026-05-09 08:23 41.31117 28.55183 14471 ft 368 kts
2026-05-09 08:23 41.33684 28.55606 15222 ft 372 kts
2026-05-09 08:24 41.36267 28.56027 15992 ft 376 kts
2026-05-09 08:24 41.38888 28.56428 16738 ft 380 kts
2026-05-09 08:24 41.41491 28.56817 17452 ft 384 kts
2026-05-09 08:24 41.44168 28.57136 18183 ft 387 kts 359°
2026-05-09 08:25 41.46875 28.57093 18837 ft 389 kts 356°
2026-05-09 08:25 41.49595 28.57025 19477 ft 394 kts 357°
2026-05-09 08:25 41.52356 28.56964 20077 ft 398 kts 357°
2026-05-09 08:25 41.55137 28.56909 20786 ft 399 kts 357°
2026-05-09 08:26 41.57927 28.56854 21433 ft 402 kts 357°
2026-05-09 08:26 41.60744 28.56797 22057 ft 406 kts 357°
2026-05-09 08:26 41.63575 28.56739 22688 ft 409 kts 357°
2026-05-09 08:26 41.66394 28.56644 23299 ft 411 kts 353°
2026-05-09 08:27 41.69200 28.55882 23760 ft 415 kts 339°
2026-05-09 08:27 41.71791 28.54170 24149 ft 416 kts 323°
2026-05-09 08:27 41.73970 28.51655 24733 ft 413 kts 310°
2026-05-09 08:27 41.75621 28.48521 25247 ft 412 kts 296°
2026-05-09 08:28 41.76640 28.44940 25738 ft 412 kts 282°
2026-05-09 08:28 41.77000 28.41145 26269 ft 412 kts 273°
2026-05-09 08:28 41.77129 28.38604 26607 ft 413 kts 273°
2026-05-09 08:28 41.77329 28.34763 27062 ft 416 kts 273°
2026-05-09 08:29 41.77534 28.30891 27527 ft 418 kts 274°
2026-05-09 08:29 41.77742 28.26989 27980 ft 420 kts 274°
2026-05-09 08:29 41.78044 28.23078 28400 ft 423 kts 279°
2026-05-09 08:29 41.78758 28.19241 28817 ft 426 kts 287°
2026-05-09 08:30 41.79903 28.15548 29208 ft 430 kts 296°
2026-05-09 08:30 41.81387 28.12114 29597 ft 433 kts 300°
2026-05-09 08:30 41.82944 28.08647 29992 ft 435 kts 299°
2026-05-09 08:30 41.84401 28.05080 30333 ft 436 kts 292°
2026-05-09 08:31 41.85445 28.01262 30677 ft 436 kts 284°
2026-05-09 08:31 41.86045 27.97270 31024 ft 437 kts 276°
2026-05-09 08:31 41.86232 27.93206 31419 ft 437 kts 272°
2026-05-09 08:31 41.86355 27.89143 31879 ft 435 kts 272°
2026-05-09 08:32 41.86486 27.85090 32353 ft 433 kts 272°
2026-05-09 08:32 41.86616 27.81074 32945 ft 428 kts 272°
2026-05-09 08:32 41.86863 27.73207 33942 ft 422 kts 273°
2026-05-09 08:33 41.86983 27.69282 34303 ft 421 kts 273°
2026-05-09 08:33 41.87101 27.65350 34576 ft 422 kts 272°
2026-05-09 08:33 41.87219 27.61413 34863 ft 422 kts 272°
2026-05-09 08:33 41.87333 27.57503 35144 ft 422 kts 272°
2026-05-09 08:34 41.87665 27.53577 35414 ft 422 kts 282°
2026-05-09 08:34 41.88507 27.49806 35654 ft 424 kts 291°
2026-05-09 08:34 41.89840 27.46279 35909 ft 425 kts 301°
2026-05-09 08:34 41.91627 27.43097 36158 ft 428 kts 310°
2026-05-09 08:35 41.93665 27.40194 36456 ft 427 kts 311°
2026-05-09 08:35 41.95701 27.37282 36692 ft 427 kts 311°
2026-05-09 08:35 41.97730 27.34365 36927 ft 428 kts 311°
2026-05-09 08:35 41.99762 27.31436 37144 ft 428 kts 311°
2026-05-09 08:36 42.01771 27.28536 37359 ft 429 kts 311°
2026-05-09 08:36 42.03811 27.25590 37501 ft 431 kts 311°
2026-05-09 08:36 42.05857 27.22632 37713 ft 431 kts 311°
2026-05-09 08:36 42.07892 27.19672 37951 ft 431 kts 310°
2026-05-09 08:37 42.09900 27.16667 38018 ft 431 kts 310°
2026-05-09 08:37 42.13880 27.10649 38013 ft 429 kts 310°
2026-05-09 08:38 42.17857 27.04643 38014 ft 430 kts 310°
2026-05-09 08:38 42.21844 26.98626 38015 ft 430 kts 310°
2026-05-09 08:39 42.25825 26.92609 38011 ft 430 kts 310°
2026-05-09 08:39 42.29804 26.86581 38010 ft 429 kts 310°
2026-05-09 08:40 42.33761 26.80574 38001 ft 430 kts 310°
2026-05-09 08:40 42.37737 26.74528 38003 ft 430 kts 310°
2026-05-09 08:41 42.41714 26.68467 38015 ft 431 kts 309°
2026-05-09 08:41 42.45695 26.62387 38019 ft 431 kts 309°
2026-05-09 08:42 42.49673 26.56299 38021 ft 431 kts 309°
2026-05-09 08:42 42.53264 26.49828 38026 ft 428 kts 300°
2026-05-09 08:43 42.55919 26.42617 38028 ft 427 kts 290°
2026-05-09 08:43 42.57859 26.35065 38027 ft 426 kts 288°
2026-05-09 08:44 42.59805 26.27456 38026 ft 426 kts 288°
2026-05-09 08:44 42.61734 26.19845 38031 ft 426 kts 288°
2026-05-09 08:45 42.63649 26.12235 38032 ft 426 kts 288°
2026-05-09 08:45 42.65564 26.04600 38034 ft 427 kts 288°
2026-05-09 08:46 42.67467 25.96989 38020 ft 423 kts 288°
2026-05-09 08:46 42.69348 25.89440 38023 ft 424 kts 288°
2026-05-09 08:47 42.71234 25.81846 38025 ft 424 kts 288°
2026-05-09 08:47 42.73112 25.74259 38026 ft 423 kts 288°
2026-05-09 08:48 42.74988 25.66659 38031 ft 424 kts 288°
2026-05-09 08:48 42.76850 25.59088 38033 ft 424 kts 287°
2026-05-09 08:49 42.78718 25.51470 38036 ft 424 kts 287°
2026-05-09 08:49 42.80577 25.43859 38035 ft 423 kts 287°
2026-05-09 08:50 42.82434 25.36237 38028 ft 423 kts 287°
2026-05-09 08:50 42.84280 25.28630 38030 ft 422 kts 287°
2026-05-09 08:51 42.86120 25.21023 38026 ft 423 kts 287°
2026-05-09 08:51 42.87947 25.13447 38028 ft 423 kts 287°
2026-05-09 08:52 42.89784 25.05802 38023 ft 423 kts 287°
2026-05-09 08:52 42.91613 24.98162 38023 ft 423 kts 287°
2026-05-09 08:53 42.93434 24.90533 38021 ft 423 kts 287°
2026-05-09 08:53 42.95243 24.82931 38020 ft 423 kts 287°
2026-05-09 08:54 42.97057 24.75281 38026 ft 424 kts 287°
2026-05-09 08:54 42.98868 24.67617 38029 ft 424 kts 287°
2026-05-09 08:55 43.00676 24.59935 38024 ft 424 kts 287°
2026-05-09 08:55 43.02476 24.52264 38022 ft 424 kts 287°
2026-05-09 08:56 43.04272 24.44584 38021 ft 424 kts 287°
2026-05-09 08:56 43.06063 24.36901 38021 ft 424 kts 287°
2026-05-09 08:57 43.07836 24.29266 38021 ft 424 kts 287°
2026-05-09 08:57 43.09930 24.21685 38019 ft 425 kts 295°
2026-05-09 08:58 43.12906 24.14690 38014 ft 426 kts 301°
2026-05-09 08:58 43.16040 24.07867 38018 ft 426 kts 300°
2026-05-09 08:59 43.19188 24.00986 38019 ft 426 kts 300°
2026-05-09 08:59 43.22346 23.94075 38032 ft 428 kts 300°
2026-05-09 09:00 43.25494 23.87147 38036 ft 427 kts 298°
2026-05-09 09:00 43.27936 23.79774 38036 ft 424 kts 287°
2026-05-09 09:01 43.29250 23.71911 38028 ft 422 kts 276°
2026-05-09 09:01 43.29959 23.63912 38023 ft 423 kts 277°
2026-05-09 09:02 43.30684 23.55899 38030 ft 423 kts 277°
2026-05-09 09:02 43.31395 23.47875 38032 ft 423 kts 276°
2026-05-09 09:03 43.32092 23.39897 38034 ft 423 kts 276°
2026-05-09 09:03 43.32787 23.31861 38036 ft 423 kts 276°
2026-05-09 09:04 43.33480 23.23823 38034 ft 423 kts 276°
2026-05-09 09:04 43.34907 23.07074 38042 ft 424 kts 276°
2026-05-09 09:05 43.38046 22.75125 38057 ft 425 kts 285°
2026-05-09 09:05 43.46386 22.44713 38062 ft 424 kts 290°
2026-05-09 09:06 43.53606 22.13953 38066 ft 421 kts 286°
2026-05-09 09:06 43.60340 21.82865 38072 ft 422 kts 286°
2026-05-09 09:07 43.66971 21.51754 38079 ft 422 kts 286°
2026-05-09 09:07 43.73526 21.20531 38086 ft 421 kts 286°
2026-05-09 09:08 43.79977 20.89333 38099 ft 420 kts 286°
2026-05-09 09:08 43.86289 20.58358 38098 ft 420 kts 286°
2026-05-09 09:09 43.88536 20.47217 38104 ft 421 kts 286°
2026-05-09 09:09 43.91070 20.34571 38105 ft 418 kts 285°
2026-05-09 09:10 43.94160 20.19043 38092 ft 416 kts 285°
2026-05-09 09:10 43.97217 20.03560 38095 ft 416 kts 285°
2026-05-09 09:11 44.00251 19.88071 38095 ft 416 kts 285°
2026-05-09 09:11 44.03255 19.72607 38102 ft 416 kts 285°
2026-05-09 09:12 44.05249 19.62280 37954 ft 415 kts 285°
2026-05-09 09:12 44.05995 19.58408 37424 ft 415 kts 285°
2026-05-09 09:12 44.06741 19.54524 36598 ft 418 kts 284°
2026-05-09 09:12 44.07491 19.50604 35544 ft 425 kts 284°
2026-05-09 09:13 44.08256 19.46602 34573 ft 430 kts 284°
2026-05-09 09:13 44.09028 19.42555 33658 ft 432 kts 284°
2026-05-09 09:13 44.09796 19.38522 32676 ft 433 kts 284°
2026-05-09 09:13 44.10562 19.34484 31703 ft 427 kts 284°
2026-05-09 09:14 44.11303 19.30576 31375 ft 407 kts 284°
2026-05-09 09:14 44.12005 19.26869 31170 ft 385 kts 284°
2026-05-09 09:14 44.12671 19.23355 30900 ft 368 kts 284°
2026-05-09 09:14 44.13057 19.21070 30499 ft 363 kts 281°
2026-05-09 09:15 44.13380 19.17598 29685 ft 361 kts 274°
2026-05-09 09:15 44.13389 19.14124 28855 ft 360 kts 267°
2026-05-09 09:15 44.13135 19.10658 28295 ft 359 kts 265°
2026-05-09 09:15 44.12853 19.06819 27709 ft 356 kts 265°
2026-05-09 09:16 44.12371 18.99994 26640 ft 353 kts 265°
2026-05-09 09:16 44.11710 18.90815 25240 ft 349 kts 265°
2026-05-09 09:16 44.11465 18.87458 24716 ft 349 kts 265°
2026-05-09 09:17 44.11217 18.84097 24212 ft 349 kts 265°
2026-05-09 09:17 44.10969 18.80739 23696 ft 348 kts 265°
2026-05-09 09:17 44.10719 18.77386 23095 ft 348 kts 265°
2026-05-09 09:17 44.10469 18.74031 22503 ft 348 kts 265°
2026-05-09 09:18 44.10218 18.70677 21912 ft 347 kts 265°
2026-05-09 09:18 44.09966 18.67331 21356 ft 347 kts 265°
2026-05-09 09:18 44.09715 18.63993 20799 ft 347 kts 265°
2026-05-09 09:18 44.09462 18.60659 20254 ft 346 kts 265°
2026-05-09 09:19 44.09210 18.57338 19722 ft 345 kts 265°
2026-05-09 09:19 44.08957 18.54019 19196 ft 345 kts 265°
2026-05-09 09:19 44.08703 18.50707 18677 ft 344 kts 265°
2026-05-09 09:19 44.08452 18.47440 18145 ft 343 kts 265°
2026-05-09 09:20 44.08198 18.44149 17565 ft 342 kts 265°
2026-05-09 09:20 44.07943 18.40860 16997 ft 341 kts 264°
2026-05-09 09:20 44.07689 18.37590 16436 ft 339 kts 265°
2026-05-09 09:20 44.07436 18.34370 15895 ft 331 kts 265°
2026-05-09 09:21 44.07189 18.31216 15383 ft 323 kts 265°
2026-05-09 09:21 44.06948 18.28151 14873 ft 315 kts 264°
2026-05-09 09:21 44.06888 18.25155 14402 ft 306 kts 272°
2026-05-09 09:21 44.06818 18.22227 13930 ft 300 kts 274°
2026-05-09 09:22 44.07307 18.19513 13441 ft 291 kts 298°
2026-05-09 09:22 44.08582 18.17367 12967 ft 289 kts 324°
2026-05-09 09:22 44.10393 18.16209 12495 ft 288 kts 349°
2026-05-09 09:22 44.12385 18.16148 12025 ft 288 kts 10°
2026-05-09 09:23 44.14282 18.17076 11566 ft 289 kts 31°
2026-05-09 09:23 44.15809 18.18866 11115 ft 288 kts 52°
2026-05-09 09:23 44.16761 18.21307 10663 ft 287 kts 73°
2026-05-09 09:23 44.17070 18.24046 10226 ft 287 kts 85°
2026-05-09 09:24 44.17251 18.26737 9779 ft 287 kts 85°
2026-05-09 09:24 44.17438 18.29500 9300 ft 287 kts 84°
2026-05-09 09:24 44.17628 18.32260 8830 ft 286 kts 84°
2026-05-09 09:24 44.17802 18.35015 8367 ft 285 kts 89°
2026-05-09 09:25 44.17497 18.37735 7900 ft 286 kts 109°
2026-05-09 09:25 44.16487 18.40121 7443 ft 287 kts 131°
2026-05-09 09:25 44.14908 18.41795 7003 ft 290 kts 153°
2026-05-09 09:25 44.12983 18.42502 6644 ft 288 kts 176°
2026-05-09 09:26 44.11036 18.42144 6508 ft 277 kts 198°
2026-05-09 09:26 44.09414 18.40921 6491 ft 262 kts 219°
2026-05-09 09:26 44.08247 18.39094 6493 ft 247 kts 240°
2026-05-09 09:26 44.07715 18.36830 6501 ft 252 kts 268°
2026-05-09 09:27 44.07982 18.34466 6497 ft 248 kts 289°
2026-05-09 09:27 44.08496 18.32166 6399 ft 249 kts 289°
2026-05-09 09:27 44.09009 18.29905 6260 ft 245 kts 289°
2026-05-09 09:27 44.09527 18.27629 6129 ft 248 kts 289°
2026-05-09 09:28 44.10039 18.25359 6014 ft 243 kts 289°
2026-05-09 09:28 44.10544 18.23099 5877 ft 246 kts 289°
2026-05-09 09:28 44.11054 18.20827 5795 ft 243 kts 289°
2026-05-09 09:28 44.11551 18.18584 5793 ft 244 kts 287°
2026-05-09 09:29 44.11649 18.16222 5697 ft 248 kts 259°
2026-05-09 09:29 44.10988 18.14102 5599 ft 244 kts 232°
2026-05-09 09:29 44.09744 18.12561 5447 ft 237 kts 213°
2026-05-09 09:29 44.08351 18.11316 5395 ft 239 kts 211°
2026-05-09 09:30 44.06902 18.10163 5396 ft 240 kts 207°
2026-05-09 09:30 44.05408 18.09122 5392 ft 240 kts 204°
2026-05-09 09:30 44.03873 18.08204 5393 ft 239 kts 200°
2026-05-09 09:30 44.02308 18.07418 5395 ft 240 kts 197°
2026-05-09 09:31 44.00707 18.06761 5395 ft 238 kts 193°
2026-05-09 09:31 43.99138 18.06250 5391 ft 225 kts 190°
2026-05-09 09:31 43.97619 18.05879 5396 ft 223 kts 187°
2026-05-09 09:32 43.94536 18.05489 5391 ft 221 kts 177°
2026-05-09 09:32 43.93081 18.06013 5400 ft 221 kts 147°
2026-05-09 09:32 43.91998 18.07464 5398 ft 216 kts 118°
2026-05-09 09:32 43.91296 18.09316 5393 ft 215 kts 112°
2026-05-09 09:33 43.90655 18.11178 5359 ft 216 kts 113°
2026-05-09 09:33 43.89971 18.13062 4992 ft 223 kts 115°
2026-05-09 09:33 43.89256 18.14979 4612 ft 224 kts 116°
2026-05-09 09:33 43.88553 18.16859 4275 ft 214 kts 116°
2026-05-09 09:34 43.87882 18.18652 3950 ft 203 kts 116°
2026-05-09 09:34 43.87256 18.20326 3667 ft 187 kts 116°
2026-05-09 09:34 43.86686 18.21850 3438 ft 170 kts 116°
2026-05-09 09:36 43.83203 18.31156 1730 ft 150 kts 116°
2026-05-09 09:36 43.82735 18.32397 1668 ft 137 kts 112°
2026-05-09 09:36 43.82420 18.33261 1680 ft 59 kts 117°
2026-05-09 09:37 43.82276 18.33646 1684 ft 30 kts 99°
2026-05-09 09:37 43.82308 18.33683 1688 ft 11 kts 349°
2026-05-09 09:37 43.82419 18.33641 1688 ft 18 kts 345°
2026-05-09 09:37 43.82483 18.33664 1683 ft 11 kts 25°
2026-05-09 09:38 43.82509 18.33682 1683 ft 1 kts 27°
2026-05-09 09:38 43.82517 18.33687 1688 ft 0 kts 27°